Total_Precipitation_Accumulation
0.06 0.17 0.35 0.50 0.84 1.25 1.18 0.69 0.45 0.43 0.47 0.45 0.53 0.52 0.49 0.50 0.69 1.13 0.62 0.32 0.20 0.20 0.22 0.28 0.32 0.32 0.38 0.46 0.55 0.60 0.57 0.55 0.57 0.57 0.53 0.55 0.55 0.53 0.52 0.54 0.59 0.63 0.67 0.65 0.66 0.66 0.64 0.64 0.68
0.08 0.17 0.31 0.57 1.11 1.57 1.22 0.60 0.39 0.43 0.44 0.42 0.46 0.54 0.61 0.42 0.28 0.30 0.36 0.27 0.14 0.12 0.13 0.16 0.24 0.25 0.27 0.34 0.44 0.57 0.56 0.53 0.53 0.49 0.47 0.47 0.51 0.57 0.58 0.60 0.65 0.67 0.67 0.62 0.60 0.55 0.51 0.54 0.61
0.09 0.16 0.28 0.63 0.94 1.13 0.86 0.42 0.36 0.34 0.44 0.50 0.51 0.49 0.55 0.38 0.27 0.22 0.26 0.18 0.11 0.08 0.11 0.19 0.22 0.20 0.21 0.25 0.35 0.46 0.44 0.41 0.41 0.41 0.44 0.46 0.51 0.56 0.61 0.64 0.65 0.62 0.61 0.58 0.53 0.46 0.44 0.46 0.53
0.10 0.15 0.31 0.54 0.54 0.53 0.45 0.33 0.30 0.30 0.42 0.49 0.57 0.58 0.48 0.35 0.31 0.29 0.21 0.17 0.09 0.09 0.11 0.17 0.21 0.19 0.18 0.21 0.28 0.36 0.37 0.35 0.37 0.40 0.44 0.46 0.49 0.54 0.55 0.54 0.55 0.57 0.56 0.54 0.51 0.42 0.45 0.51 0.57
0.11 0.19 0.45 0.50 0.42 0.43 0.40 0.31 0.29 0.26 0.37 0.51 0.51 0.63 0.64 0.47 0.32 0.26 0.20 0.21 0.13 0.11 0.11 0.15 0.21 0.20 0.18 0.21 0.26 0.31 0.35 0.34 0.35 0.38 0.39 0.43 0.48 0.52 0.51 0.45 0.47 0.52 0.53 0.49 0.44 0.42 0.47 0.52 0.57
0.10 0.24 0.41 0.37 0.32 0.31 0.29 0.25 0.28 0.29 0.38 0.60 0.51 0.60 0.83 0.66 0.44 0.35 0.25 0.24 0.21 0.16 0.10 0.14 0.23 0.24 0.25 0.25 0.29 0.33 0.31 0.34 0.38 0.37 0.33 0.36 0.41 0.43 0.46 0.46 0.46 0.50 0.52 0.47 0.41 0.47 0.50 0.54 0.58
0.09 0.19 0.25 0.26 0.23 0.26 0.24 0.25 0.27 0.26 0.44 0.72 0.56 0.71 1.05 1.03 0.65 0.48 0.47 0.36 0.32 0.27 0.23 0.20 0.24 0.28 0.33 0.36 0.35 0.38 0.36 0.35 0.39 0.39 0.37 0.38 0.39 0.38 0.41 0.51 0.53 0.50 0.49 0.47 0.41 0.42 0.44 0.45 0.49
0.04 0.08 0.13 0.18 0.18 0.19 0.17 0.19 0.21 0.35 0.47 0.59 0.49 0.72 1.22 1.15 0.76 0.68 0.74 0.65 0.68 0.61 0.46 0.31 0.29 0.35 0.34 0.33 0.42 0.48 0.44 0.41 0.40 0.40 0.41 0.42 0.43 0.43 0.47 0.51 0.59 0.61 0.56 0.52 0.46 0.41 0.42 0.48 0.55
0.04 0.08 0.14 0.14 0.14 0.13 0.13 0.14 0.18 0.31 0.46 0.62 0.65 0.71 0.95 0.85 0.82 0.90 1.02 1.08 1.10 1.14 0.95 0.59 0.46 0.46 0.49 0.42 0.44 0.57 0.57 0.49 0.49 0.52 0.56 0.70 0.82 0.73 0.83 0.76 0.85 0.84 0.77 0.72 0.68 0.65 0.63 0.60 0.56
0.04 0.09 0.10 0.07 0.08 0.12 0.11 0.14 0.22 0.36 0.61 0.89 0.90 0.91 1.08 1.01 0.84 0.90 0.98 1.14 1.23 1.34 1.23 0.92 0.78 0.60 0.54 0.49 0.62 0.84 0.79 0.81 0.85 0.93 0.91 1.16 1.35 1.25 0.98 1.10 1.33 1.33 1.29 1.16 1.15 1.15 0.96 0.78 0.75
0.03 0.04 0.05 0.06 0.06 0.08 0.11 0.13 0.21 0.40 0.77 1.21 1.45 1.47 1.33 1.20 1.13 1.10 1.09 1.24 1.45 1.48 1.36 1.12 1.02 0.90 0.74 0.86 0.82 0.96 1.16 1.30 1.15 1.06 1.13 1.46 1.38 1.14 1.15 1.25 1.44 1.65 1.58 1.47 1.63 1.73 1.45 1.39 1.65
0.02 0.02 0.02 0.04 0.04 0.06 0.10 0.13 0.22 0.41 0.75 1.02 1.25 1.53 1.65 1.50 1.54 1.51 1.49 1.71 1.89 1.78 1.62 1.42 1.23 1.10 1.07 1.07 1.02 1.07 1.13 1.29 1.29 1.34 1.34 1.54 1.73 1.66 1.67 1.77 1.75 1.85 2.00 2.26 2.19 2.25 2.07 1.97 1.90
0.02 0.02 0.03 0.04 0.05 0.07 0.09 0.19 0.30 0.46 0.59 0.78 0.94 1.10 1.37 1.71 2.03 2.14 2.24 2.60 2.46 2.29 2.17 1.95 1.61 1.56 1.51 1.56 1.57 1.33 1.33 1.42 1.63 1.78 1.73 1.71 1.89 1.92 1.99 2.01 2.04 1.91 2.02 2.21 2.46 2.37 2.44 2.49 2.28
0.02 0.03 0.04 0.05 0.06 0.08 0.12 0.26 0.31 0.50 0.59 0.70 0.90 1.09 1.62 2.21 2.39 2.66 3.07 3.33 3.18 2.95 2.96 2.74 2.39 2.32 2.22 2.01 1.92 1.84 1.69 1.81 1.88 1.97 1.97 1.97 2.18 2.33 2.27 2.10 2.12 2.02 2.05 2.15 2.35 2.44 2.77 2.73 2.67
0.02 0.05 0.07 0.08 0.09 0.12 0.16 0.35 0.43 0.58 0.67 0.78 1.12 1.31 1.76 2.11 2.38 2.52 3.00 3.33 3.29 3.22 3.39 3.39 3.23 3.20 3.04 2.73 2.42 2.21 2.16 2.08 2.24 2.33 2.27 2.32 2.36 2.51 2.43 2.31 2.13 2.13 2.18 2.32 2.38 2.49 2.79 2.79 2.71
0.04 0.11 0.19 0.16 0.14 0.16 0.25 0.65 0.59 0.65 0.87 1.11 1.34 1.49 1.73 1.89 2.26 2.40 2.77 3.26 3.49 3.50 3.70 3.92 3.87 3.86 3.63 3.33 3.01 2.76 2.57 2.49 2.48 2.46 2.46 2.38 2.51 2.56 2.58 2.36 2.11 2.24 2.21 2.34 2.61 2.71 2.86 3.01 3.01
0.08 0.14 0.27 0.28 0.22 0.18 0.34 0.79 0.80 0.88 1.02 1.14 1.26 1.51 1.67 1.66 2.01 2.45 2.76 3.33 3.74 3.87 4.24 4.60 4.66 4.57 4.21 3.78 3.53 3.42 3.17 2.93 2.75 2.72 2.61 2.52 2.55 2.48 2.55 2.35 2.24 2.33 2.49 2.53 2.38 2.85 3.10 3.15 3.13
0.09 0.09 0.16 0.23 0.22 0.22 0.41 0.60 0.73 0.93 1.09 1.21 1.23 1.35 1.38 1.51 1.99 2.52 2.87 3.23 3.87 4.38 4.97 5.00 4.94 5.18 4.94 4.58 4.32 4.06 3.63 3.28 2.99 2.85 2.72 2.53 2.43 2.37 2.58 2.28 2.24 2.42 2.63 2.64 2.70 3.08 3.17 3.03 3.15
0.07 0.12 0.20 0.25 0.23 0.36 0.55 0.71 0.83 0.95 1.01 1.19 1.29 1.24 1.29 1.58 2.01 2.44 2.85 3.26 3.67 4.23 4.77 5.30 5.37 5.24 5.05 4.73 4.25 3.85 3.45 3.23 2.98 2.75 2.56 2.49 2.45 2.51 2.85 2.51 2.65 2.56 2.56 2.59 2.75 2.97 2.92 2.77 3.13
0.09 0.16 0.25 0.30 0.24 0.34 0.54 0.81 0.97 0.97 0.95 1.04 1.22 1.37 1.41 1.67 1.99 2.43 2.90 3.15 3.34 3.67 4.10 4.48 4.72 4.42 4.07 3.84 3.72 3.56 3.50 3.12 2.96 2.92 2.93 2.69 2.69 2.64 2.62 2.72 2.60 2.62 2.65 2.46 2.54 2.82 2.68 2.34 2.72
0.13 0.14 0.15 0.20 0.22 0.36 0.58 0.99 1.11 0.91 0.87 0.95 1.08 1.36 1.57 1.64 1.91 2.23 2.66 2.88 2.99 3.14 3.27 3.39 3.56 3.61 3.60 3.62 3.71 3.74 3.83 3.51 3.37 3.30 3.18 2.83 2.74 2.66 2.67 2.55 2.44 2.49 2.42 2.33 2.30 2.47 2.58 2.39 2.38
0.15 0.09 0.07 0.11 0.24 0.53 0.65 1.15 1.29 1.05 1.00 1.04 1.08 1.22 1.33 1.51 1.60 1.71 2.03 2.45 2.43 2.45 2.70 3.12 3.28 3.40 3.58 3.80 3.79 3.76 3.64 3.52 3.52 3.63 3.60 3.46 3.20 2.92 2.69 2.49 2.35 2.24 2.14 2.20 1.97 2.21 2.37 2.44 2.14
0.08 0.05 0.07 0.11 0.24 0.44 0.54 0.85 1.13 1.17 1.12 1.04 1.02 1.13 1.20 1.29 1.38 1.45 1.65 2.08 2.16 2.07 2.35 2.84 3.34 3.57 3.74 3.92 3.98 4.17 3.99 3.80 3.69 3.74 3.79 3.57 3.33 3.03 2.70 2.59 2.46 2.30 2.14 2.06 2.00 2.16 2.09 2.10 2.04
0.05 0.08 0.17 0.24 0.44 0.80 0.65 0.70 1.13 1.14 0.99 0.90 0.82 0.87 0.97 0.94 1.01 1.19 1.51 1.93 2.15 2.23 2.47 2.82 3.23 3.55 3.73 3.85 3.87 3.88 3.83 3.77 3.56 3.45 3.21 2.87 2.75 2.63 2.44 2.36 2.28 2.14 2.10 2.08 2.04 2.02 1.99 2.03 2.10
0.07 0.17 0.55 0.88 1.15 1.20 0.64 0.67 1.02 0.88 0.83 0.76 0.83 0.86 0.78 0.77 0.86 0.88 1.00 1.15 1.30 1.49 1.74 1.96 2.26 2.62 2.90 3.09 3.14 3.08 3.24 3.26 2.99 2.74 2.56 2.27 2.05 1.87 1.85 1.92 1.92 1.87 1.91 1.94 2.03 1.91 1.82 1.93 2.05
0.07 0.12 0.36 0.58 0.74 0.87 0.79 1.10 1.12 0.77 0.67 0.67 0.74 0.73 0.59 0.55 0.55 0.56 0.61 0.68 0.93 1.20 1.55 1.73 1.79 1.92 2.22 2.41 2.46 2.48 2.55 2.51 2.33 2.35 2.12 1.91 1.74 1.60 1.66 1.74 1.72 1.70 1.73 1.70 1.89 1.73 1.68 1.77 1.79
0.06 0.07 0.12 0.20 0.30 0.59 0.91 1.26 1.18 0.83 0.73 0.65 0.55 0.49 0.47 0.38 0.38 0.43 0.45 0.51 0.68 0.96 1.22 1.34 1.48 1.70 1.98 2.20 2.15 2.10 1.96 1.93 1.98 1.95 1.80 1.69 1.70 1.60 1.66 1.61 1.67 1.69 1.73 1.80 1.90 1.74 1.68 1.83 1.77
0.07 0.08 0.10 0.15 0.31 0.54 0.83 1.19 1.31 1.04 0.93 0.72 0.64 0.66 0.49 0.37 0.35 0.42 0.42 0.45 0.54 0.68 0.93 1.13 1.31 1.56 1.73 1.84 1.85 1.74 1.75 1.70 1.71 1.66 1.62 1.57 1.64 1.71 1.73 1.69 1.73 1.71 1.68 1.72 1.77 1.56 1.57 1.77 1.82
0.10 0.10 0.11 0.12 0.16 0.37 0.74 1.01 0.94 0.89 0.79 0.66 0.66 0.64 0.55 0.49 0.38 0.35 0.38 0.43 0.56 0.71 0.90 1.15 1.32 1.45 1.55 1.56 1.58 1.63 1.59 1.58 1.63 1.56 1.50 1.52 1.67 1.73 1.69 1.65 1.67 1.65 1.61 1.67 1.71 1.54 1.65 1.77 1.80
0.11 0.11 0.12 0.16 0.15 0.18 0.40 0.75 0.66 0.63 0.66 0.64 0.63 0.63 0.60 0.52 0.48 0.46 0.52 0.54 0.63 0.77 0.88 1.15 1.40 1.45 1.53 1.59 1.71 1.82 1.87 1.89 1.83 1.62 1.50 1.55 1.64 1.71 1.73 1.72 1.71 1.60 1.61 1.79 1.83 1.72 1.78 1.85 1.82